Terminal Aerodrome Forecast
Issued by NWS Des Moines, IA

Current Version | Previous Version | Text Only | Print | Product List | Glossary On
Versions: 1 2 3 4 5 6 7 8 9 10 11 12 13 14 15 16 17 18 19 20 21 22 23 24 25 26 27 28 29 30 31 32 33 34 35 36 37 38 39 40 41 42 43 44 45 46 47 48 49 50
000
FTUS43 KDMX 270524
TAFDSM
TAF
KDSM 270524Z 2706/2806 01015KT P6SM BKN045
     FM270800 35007KT P6SM SKC
     FM272000 32006KT P6SM SCT200
     FM280200 11004KT P6SM OVC080
     FM280500 14007KT P6SM VCSH SCT020 OVC040=

USA.gov is the U.S. government's official web portal to all federal, state and local government web resources and services.